This is the latest recevied weather packets stored in our database for station/object AE5TC. If no packets are shown the sender has not sent any weather packets the latest 10 day(s).
| Time | Temp. | Humidity | Pressure | Rain* | Wind** | Luminosity | Snow |
|---|---|---|---|---|---|---|---|
| 1777285965 | 17.22° C | 99% | 1013.5 hPa | 0 mm | - | 0 W/m² | - |
| 1777285662 | 17.22° C | 99% | 1013.4 hPa | 0 mm | - | 0 W/m² | - |
| 1777285360 | 17.22° C | 99% | 1013.4 hPa | 0 mm | - | 0 W/m² | - |
| 1777285057 | 16.67° C | 99% | 1013.6 hPa | 0 mm | - | 0 W/m² | - |
| 1777284754 | 16.67° C | 99% | 1013.6 hPa | 0 mm | - | 0 W/m² | - |
| 1777284451 | 17.22° C | 99% | 1013.5 hPa | 0 mm | - | 0 W/m² | - |
| 1777284148 | 17.22° C | 99% | 1013.4 hPa | 0 mm | - | 0 W/m² | - |
| 1777282033 | 17.78° C | 99% | 1013.4 hPa | 0 mm | - | 0 W/m² | - |
| 1777281730 | 18.33° C | 99% | 1013.1 hPa | 0 mm | - | 0 W/m² | - |
| 1777281427 | 18.33° C | 99% | 1013.3 hPa | 0 mm | - | 0 W/m² | - |
| 1777281123 | 18.33° C | 99% | 1013.2 hPa | 0 mm | - | 0 W/m² | - |
| 1777280821 | 18.33° C | 99% | 1013.2 hPa | 0 mm | - | 0 W/m² | - |
| 1777280517 | 18.33° C | 99% | 1013.1 hPa | 0 mm | - | 0 W/m² | - |
| 1777280214 | 18.33° C | 99% | 1013.3 hPa | 0 mm | - | 0 W/m² | - |
| 1777279910 | 18.33° C | 99% | 1013.2 hPa | 0 mm | - | 0 W/m² | - |
| 1777279305 | 18.89° C | 99% | 1013.2 hPa | 0 mm | - | 0 W/m² | - |
| 1777279002 | 18.89° C | 99% | 1013.1 hPa | 0 mm | - | 0 W/m² | - |
| 1777278698 | 18.89° C | 99% | 1012.9 hPa | 0 mm | - | 0 W/m² | - |
| 1777278394 | 18.89° C | 99% | 1013 hPa | 0 mm | - | 0 W/m² | - |
| 1777278092 | 19.44° C | 99% | 1013 hPa | 0 mm | - | 0 W/m² | - |
| 1777277788 | 19.44° C | 99% | 1013 hPa | 0 mm | - | 0 W/m² | - |
| 1777277484 | 20° C | 99% | 1012.9 hPa | 0 mm | - | 0 W/m² | - |
| 1777277180 | 20° C | 99% | 1012.8 hPa | 0 mm | - | 0 W/m² | - |
| 1777276875 | 20° C | 99% | 1012.9 hPa | 0 mm | - | 0 W/m² | - |
| 1777276572 | 19.44° C | 99% | 1012.7 hPa | 0 mm | - | 0 W/m² | - |
* Rain latest hour (hover to see other rain measurements)
** Current wind speed in m/s (hover to see current wind gust speed)